カタログに戻る

CZ-2D DEB

運用中SSO
NORAD 35274·DEBRIS·🇨🇳 China

打ち上げ Nov 5, 2008 から Jiuquan Satellite Launch Center

Loading…

次のパス (今後24時間)

TLE

最新Source: Space-Track

元期: Sep 12, 2026, 21:07 UTC

1 35274U 08056D   26255.88034834  .00000384  00000-0  21460-3 0  9999
2 35274  98.9914 297.5605 0162234 357.2180   2.8072 14.10216210909961

AllMySatでCZ-2D DEBをリアルタイム追跡

Download on the App Store